PBO Station Position Time Series. Reference Frame : NAM14
Format Version,1.1.0
4-character ID,P249
Station name,CallMtn___CN2005
Begin Date, 2005-06-10
End Date, 2019-09-16
Release Date, 2019-10-05
Reference position, 36.6116452584 North Latitude, -121.0644120985 East Longitude, 1155.73413 meters elevation,
Date, North (mm), East (mm), Vertical (mm), North Std. Deviation (mm), East Std. Deviation (mm),              Vertical Std. Deviation (mm), Quality,
2005-06-10,0.00, 0.00, 0.00, 2.09, 1.67, 7.58, repro,
2005-06-11,0.86, -0.69, -1.12, 2.08, 1.68, 7.59, repro,
2005-06-12,0.25, 0.78, 1.53, 2.14, 1.71, 7.70, repro,
2005-06-13,-0.35, 1.03, 0.56, 2.17, 1.74, 7.84, repro,
2005-06-14,0.56, 0.82, 0.23, 2.12, 1.68, 7.62, repro,
2005-06-15,0.10, -0.49, 2.62, 2.07, 1.65, 7.51, repro,
2005-06-16,0.53, -1.16, -0.04, 2.12, 1.64, 7.55, repro,
2005-06-17,0.32, 0.46, -2.87, 2.14, 1.67, 7.70, repro,
2005-06-18,0.15, 0.03, -3.12, 2.04, 1.62, 7.36, repro,
2005-06-19,-0.15, 0.19, -0.19, 2.10, 1.64, 7.49, repro,
2005-06-20,-0.56, -0.59, -2.75, 2.04, 1.62, 7.41, repro,
2005-06-21,0.40, -0.71, -0.75, 2.04, 1.61, 7.36, repro,
2005-06-22,0.54, -0.46, -11.20, 2.04, 1.61, 7.36, repro,
2005-06-23,-0.14, 0.40, -6.21, 2.10, 1.65, 7.48, repro,
2005-06-24,-0.18, -0.16, 0.99, 2.07, 1.65, 7.54, repro,
2005-06-25,0.50, 0.97, 0.78, 2.06, 1.65, 7.51, repro,
2005-06-26,-0.14, -1.00, 1.00, 2.10, 1.64, 7.50, repro,
2005-06-27,0.54, 0.37, -2.50, 2.10, 1.64, 7.51, repro,
2005-06-28,0.29, 0.55, -3.39, 2.04, 1.61, 7.33, repro,
2005-06-29,0.98, 0.19, -0.64, 2.04, 1.61, 7.34, repro,
2005-06-30,0.54, -0.73, 3.89, 2.03, 1.61, 7.34, repro,
2006-01-27,-1.57, 0.68, -6.29, 1.99, 1.57, 7.16, repro,
2006-01-28,-1.36, 1.33, -5.72, 1.99, 1.56, 7.13, repro,
2006-01-29,-1.86, 2.33, -7.43, 1.98, 1.55, 7.08, repro,
2006-01-30,-1.27, 1.02, -4.96, 1.99, 1.56, 7.17, repro,
2006-01-31,-2.21, 0.91, -2.60, 2.02, 1.58, 7.26, repro,
2006-02-01,-2.20, 1.33, -2.04, 2.01, 1.58, 7.28, repro,
2006-02-02,-2.26, 2.51, -5.50, 2.01, 1.57, 7.24, repro,
2006-02-03,-2.31, 0.45, 1.55, 2.00, 1.56, 7.21, repro,
2006-02-04,-2.05, 0.88, -6.06, 2.01, 1.57, 7.24, repro,
2006-02-05,-2.44, 0.15, -4.31, 2.00, 1.57, 7.24, repro,
2006-02-06,-2.75, 0.76, -7.06, 2.00, 1.56, 7.25, repro,
2006-02-07,-1.69, 0.49, -6.50, 1.99, 1.57, 7.29, repro,
2006-02-08,-1.34, 0.85, -8.11, 1.99, 1.56, 7.25, repro,
2006-02-09,-1.86, 0.18, -4.05, 2.05, 1.56, 7.40, repro,
2006-02-10,-2.03, 0.49, -6.21, 2.15, 1.59, 7.63, repro,
2006-02-11,-1.84, 0.02, -8.10, 2.01, 1.56, 7.31, repro,
2006-02-12,-1.55, 0.25, -10.18, 2.00, 1.55, 7.27, repro,
2006-02-13,-1.69, 1.00, -7.67, 2.00, 1.56, 7.28, repro,
2006-02-14,-2.85, 1.28, -2.23, 2.01, 1.54, 7.25, repro,
2006-02-15,-3.66, 0.32, -2.07, 2.03, 1.59, 7.42, repro,
2006-02-16,-2.22, 0.58, -6.09, 2.02, 1.56, 7.31, repro,
2006-02-17,-3.07, 1.20, -4.23, 2.00, 1.56, 7.25, repro,
2006-02-18,-3.89, 0.34, 0.97, 2.00, 1.56, 7.29, repro,
2006-02-19,-2.75, 0.50, -5.29, 2.00, 1.55, 7.24, repro,
2006-02-20,-1.95, 0.12, -1.18, 2.00, 1.54, 7.25, repro,
2006-02-21,-1.33, 1.26, -0.74, 2.01, 1.55, 7.29, repro,
2006-02-22,-0.95, 1.56, 3.10, 2.02, 1.56, 7.31, repro,
2006-02-23,-2.11, 0.35, 1.54, 2.01, 1.57, 7.31, repro,
2006-02-24,-3.78, 0.28, -0.04, 1.99, 1.56, 7.28, repro,
2006-02-25,-1.87, 0.97, -5.33, 2.00, 1.55, 7.21, repro,
2006-02-26,-3.22, 0.37, -1.08, 2.01, 1.57, 7.34, repro,
2006-02-27,0.36, 1.43, -10.17, 2.01, 1.60, 7.37, repro,
2006-02-28,-3.71, 0.05, 12.61, 2.07, 1.62, 7.55, repro,
2006-03-01,-2.85, 0.55, -4.60, 2.11, 1.65, 7.59, repro,
2006-03-02,-2.58, 2.27, -6.86, 1.98, 1.56, 7.19, repro,
2006-03-03,-1.71, 2.55, -5.41, 2.08, 1.59, 7.55, repro,
2006-03-04,-2.67, 0.35, -6.11, 2.01, 1.59, 7.34, repro,
2006-03-05,-5.32, 0.31, 3.97, 2.00, 1.59, 7.32, repro,
2006-03-06,-1.85, 1.74, -8.22, 1.99, 1.60, 7.35, repro,
2006-03-07,-2.60, 1.98, -4.43, 1.98, 1.58, 7.28, repro,
2006-03-08,-1.80, 1.07, -4.58, 1.98, 1.57, 7.25, repro,
2006-03-09,-3.01, 1.90, 4.18, 2.00, 1.59, 7.30, repro,
2006-03-10,-2.67, 1.36, 4.80, 2.01, 1.59, 7.34, repro,
2006-03-11,-2.39, 1.17, 6.01, 2.03, 1.59, 7.38, repro,
2006-03-12,-2.58, 1.21, -1.06, 2.02, 1.60, 7.40, repro,
2006-03-13,-2.58, 1.18, 1.01, 2.03, 1.58, 7.34, repro,
2006-03-14,-3.74, 1.65, 0.46, 2.03, 1.60, 7.38, repro,
2006-03-15,-3.97, 0.57, -2.51, 2.03, 1.61, 7.41, repro,
2006-03-16,-3.58, -0.21, -8.18, 2.10, 1.63, 7.53, repro,
2006-03-17,-4.66, 0.48, 0.02, 2.10, 1.64, 7.55, repro,
2006-03-18,-4.05, 0.94, -4.37, 2.03, 1.62, 7.39, repro,
2006-03-19,-5.06, 0.15, -7.11, 2.01, 1.60, 7.28, repro,
2006-03-20,-3.59, -0.02, 1.28, 2.03, 1.62, 7.46, repro,
2006-03-21,-4.34, 0.81, 1.66, 2.01, 1.62, 7.38, repro,
2006-03-22,-3.63, 0.09, -5.08, 2.01, 1.62, 7.41, repro,
2006-03-23,-3.27, 0.20, -9.57, 2.09, 1.65, 7.58, repro,
2006-03-24,-4.20, -0.61, -1.45, 2.06, 1.63, 7.50, repro,
2006-03-25,-3.02, -0.22, 3.93, 2.08, 1.65, 7.58, repro,
2006-03-26,-3.69, -1.04, 3.29, 2.08, 1.65, 7.58, repro,
2006-03-27,-5.29, -1.06, 1.59, 2.08, 1.66, 7.58, repro,
2006-03-28,-3.89, -0.69, 10.17, 2.01, 1.63, 7.43, repro,
2006-03-29,-3.68, 0.57, 10.94, 1.95, 1.60, 7.27, repro,
2006-03-30,-3.30, -0.64, 1.00, 1.94, 1.59, 7.22, repro,
2006-03-31,-3.04, 0.10, 2.21, 1.96, 1.61, 7.30, repro,
2006-04-01,-2.84, -1.85, -2.18, 2.00, 1.65, 7.42, repro,
2006-04-02,-3.16, -0.76, -1.90, 1.95, 1.60, 7.25, repro,
2006-04-03,0.74, 2.93, -5.78, 1.96, 1.60, 7.32, repro,
2006-04-04,-2.84, -0.58, 9.75, 1.97, 1.60, 7.26, repro,
2006-04-05,-4.30, -0.02, -0.90, 1.97, 1.64, 7.44, repro,
2006-04-06,-4.29, -2.73, -0.53, 1.99, 1.63, 7.47, repro,
2006-04-07,-3.58, -2.16, -2.27, 2.07, 1.65, 7.63, repro,
2006-04-08,-3.80, -2.05, 1.41, 2.09, 1.65, 7.72, repro,
2006-04-09,-5.14, -2.65, -2.51, 1.97, 1.59, 7.29, repro,
2006-04-10,-4.54, -1.90, 3.44, 1.95, 1.59, 7.27, repro,
2006-04-11,-4.33, -2.87, -6.62, 2.01, 1.64, 7.56, repro,
2006-04-12,-3.36, -3.13, -8.11, 2.03, 1.63, 7.59, repro,
2006-04-13,-4.42, -3.15, -3.75, 1.97, 1.60, 7.36, repro,
2006-04-14,-5.33, -2.43, 4.57, 1.96, 1.60, 7.32, repro,
2006-04-15,-6.21, -2.62, 3.13, 2.01, 1.62, 7.41, repro,
2006-04-16,-3.57, -2.39, 5.11, 1.94, 1.59, 7.25, repro,
2006-04-17,-5.81, -2.40, 6.20, 1.95, 1.60, 7.32, repro,
2006-04-18,-4.80, -3.49, -0.33, 1.96, 1.60, 7.35, repro,
2006-04-19,-4.69, -3.92, 1.35, 1.96, 1.61, 7.36, repro,
2006-04-20,-4.55, -2.39, 2.47, 1.99, 1.63, 7.48, repro,
2006-04-21,-4.14, -3.51, 1.70, 1.94, 1.58, 7.24, repro,
2006-04-22,-3.65, -2.67, -0.02, 1.97, 1.63, 7.42, repro,
2006-04-23,-4.50, -3.08, 1.11, 2.04, 1.72, 7.72, repro,
2006-04-24,-4.96, -3.43, -1.87, 1.98, 1.64, 7.45, repro,
2006-04-25,-4.69, -3.04, -0.39, 2.03, 1.71, 7.70, repro,
2006-04-26,-5.84, -3.74, 0.27, 1.99, 1.63, 7.45, repro,
2006-04-27,-4.85, -3.70, 0.82, 2.03, 1.64, 7.47, repro,
2006-04-28,-5.05, -3.57, 1.91, 2.02, 1.60, 7.39, repro,
2006-04-29,-4.52, -5.38, -0.70, 1.97, 1.60, 7.34, repro,
2006-04-30,-5.11, -4.50, 3.12, 1.97, 1.60, 7.34, repro,
2006-05-01,-4.62, -4.15, -1.73, 1.96, 1.60, 7.34, repro,
2006-05-02,-5.42, -5.20, 6.32, 1.94, 1.57, 7.21, repro,
2006-05-03,-5.00, -4.55, 4.80, 1.95, 1.59, 7.31, repro,
2006-05-04,-4.99, -4.63, 2.87, 1.96, 1.59, 7.32, repro,
2006-05-05,-5.44, -4.40, 3.20, 1.97, 1.60, 7.35, repro,
2006-05-06,-5.32, -3.65, 3.29, 1.97, 1.60, 7.37, repro,
2006-05-07,-4.19, -4.15, 3.01, 1.95, 1.58, 7.25, repro,
2006-05-08,-4.27, -3.90, 1.95, 1.97, 1.60, 7.35, repro,
2006-05-09,-5.04, -5.07, 5.28, 2.02, 1.61, 7.45, repro,
2006-05-10,-4.75, -4.05, 2.76, 1.97, 1.60, 7.34, repro,
2006-05-11,-6.00, -4.42, 5.56, 1.97, 1.61, 7.40, repro,
2006-05-12,-5.32, -5.10, 6.72, 1.94, 1.59, 7.28, repro,
2006-05-13,-4.48, -4.63, 3.73, 1.95, 1.59, 7.29, repro,
2006-05-14,-5.50, -4.45, 1.22, 1.96, 1.59, 7.34, repro,
2006-05-15,-5.90, -4.90, -1.23, 1.96, 1.60, 7.37, repro,
2006-05-16,-7.19, -4.27, 8.51, 2.00, 1.64, 7.50, repro,
2006-05-17,-5.40, -4.62, 8.09, 1.98, 1.64, 7.47, repro,
2006-05-18,-5.18, -3.92, 6.63, 1.99, 1.60, 7.40, repro,
2006-05-19,-4.04, -5.40, 4.30, 2.09, 1.63, 7.59, repro,
2006-05-20,-5.49, -4.02, 5.85, 2.03, 1.61, 7.46, repro,
2006-05-21,-5.93, -5.83, 9.16, 2.10, 1.65, 7.69, repro,
2006-05-22,-5.50, -4.66, 8.73, 2.05, 1.68, 7.57, repro,
2006-05-23,-2.19, -4.87, 3.04, 2.03, 1.62, 7.45, repro,
2006-05-24,-5.42, -4.50, 4.81, 2.05, 1.61, 7.47, repro,
2006-05-25,-5.69, -4.44, 0.14, 2.14, 1.66, 7.78, repro,
2006-05-26,-4.81, -5.80, 9.01, 2.10, 1.65, 7.72, repro,
2006-05-27,-6.23, -1.31, 2.86, 2.02, 1.62, 7.47, repro,
2006-05-28,-5.29, -3.23, 7.96, 2.03, 1.62, 7.45, repro,
2006-05-29,-4.63, -3.94, 6.82, 2.03, 1.61, 7.40, repro,
2006-05-30,-4.41, -4.53, 2.95, 2.11, 1.68, 7.73, repro,
2006-05-31,-4.87, -4.01, 4.52, 2.11, 1.68, 7.72, repro,
2006-06-01,-5.15, -4.51, 8.74, 2.06, 1.65, 7.60, repro,
2006-06-02,-5.99, -3.86, 9.53, 2.16, 1.71, 7.86, repro,
2006-06-03,-7.09, -3.98, 4.90, 2.12, 1.68, 7.79, repro,
2006-06-04,-5.40, -3.79, 8.59, 2.08, 1.64, 7.59, repro,
2006-06-05,-5.54, -4.59, 9.90, 2.08, 1.63, 7.62, repro,
2006-06-06,-5.42, -4.81, 11.31, 2.08, 1.65, 7.65, repro,
2006-06-07,-6.37, -4.29, 4.49, 2.11, 1.67, 7.72, repro,
2006-06-08,-6.76, -4.49, 3.32, 2.07, 1.66, 7.66, repro,
2006-06-09,-6.19, -3.59, 10.37, 2.09, 1.68, 7.69, repro,
2006-06-10,-5.48, -4.59, 7.53, 2.03, 1.61, 7.43, repro,
2006-06-11,-6.21, -4.23, 6.25, 2.06, 1.64, 7.64, repro,
2006-06-12,-6.68, -4.02, 17.61, 2.07, 1.66, 7.64, repro,
2006-06-13,-5.86, -2.63, 1.53, 2.07, 1.64, 7.55, repro,
2006-06-14,-5.45, -3.86, 8.91, 2.04, 1.62, 7.50, repro,
2006-06-15,-4.72, -5.33, 17.80, 2.05, 1.64, 7.58, repro,
2006-06-16,-7.79, -4.31, 15.89, 2.03, 1.61, 7.47, repro,
2006-06-17,-4.78, -5.92, 17.90, 2.03, 1.61, 7.46, repro,
2006-06-18,-6.65, -4.71, 17.41, 2.06, 1.67, 7.72, repro,
2006-06-19,-5.45, -6.39, 6.75, 2.06, 1.67, 7.69, repro,
2006-06-20,-5.64, -4.17, 11.71, 2.04, 1.65, 7.61, repro,
2006-06-21,-5.91, -4.42, 11.48, 2.05, 1.65, 7.65, repro,
2006-06-22,-6.76, -5.20, 6.89, 2.06, 1.65, 7.69, repro,
2006-06-23,-6.35, -4.85, 10.33, 2.07, 1.67, 7.73, repro,
2006-06-24,-6.32, -4.78, 10.47, 2.05, 1.67, 7.68, repro,
2006-06-25,-6.08, -4.21, 10.68, 2.05, 1.67, 7.69, repro,
2006-06-26,-5.11, -3.38, 9.19, 2.09, 1.72, 7.79, repro,
2006-06-27,-6.25, -5.64, 15.04, 2.13, 1.74, 7.94, repro,
2006-06-28,-6.53, -5.70, 11.69, 2.06, 1.67, 7.72, repro,
2006-06-29,-5.73, -5.31, 13.94, 1.98, 1.65, 7.54, repro,
2006-06-30,-6.01, -4.38, 10.89, 2.01, 1.63, 7.58, repro,
2006-07-01,-4.94, -3.92, 11.22, 2.02, 1.62, 7.56, repro,
2006-07-02,-5.04, -4.17, 10.59, 2.07, 1.72, 7.87, repro,
2006-07-03,-6.29, -3.72, 4.43, 2.02, 1.63, 7.60, repro,
2006-07-04,-7.55, -4.94, 6.86, 2.01, 1.63, 7.59, repro,
2006-07-05,-6.59, -4.86, 11.67, 2.01, 1.62, 7.56, repro,
2006-07-06,-5.94, -4.68, 3.84, 2.03, 1.62, 7.61, repro,
2006-07-07,-6.43, -3.68, 7.50, 2.02, 1.62, 7.57, repro,
2006-07-08,-6.79, -4.91, 6.82, 2.03, 1.63, 7.64, repro,
2006-07-09,-7.69, -5.46, 11.33, 2.03, 1.63, 7.66, repro,
2006-07-10,-7.21, -4.26, 6.84, 2.03, 1.63, 7.62, repro,
2006-07-11,-6.53, -5.49, 13.04, 2.03, 1.63, 7.70, repro,
2006-07-12,-6.92, -4.30, 9.03, 2.02, 1.62, 7.60, repro,
2006-07-13,-7.01, -6.15, 12.34, 2.04, 1.64, 7.69, repro,
2006-07-14,-6.49, -4.38, 9.99, 2.03, 1.64, 7.69, repro,
2006-07-15,-7.20, -4.60, 12.71, 2.03, 1.63, 7.66, repro,
2006-07-16,-7.08, -5.12, 12.08, 2.01, 1.63, 7.66, repro,
2006-07-17,-6.65, -5.16, 12.68, 2.11, 1.74, 8.04, repro,
2006-07-18,-6.49, -4.21, 16.20, 1.96, 1.59, 7.34, repro,
2006-07-19,-6.76, -4.56, 11.64, 1.98, 1.60, 7.42, repro,
2006-07-20,-5.44, -3.46, 6.36, 1.96, 1.60, 7.38, repro,
2006-07-21,-6.45, -3.22, 13.84, 1.95, 1.59, 7.32, repro,
2006-07-22,-6.84, -2.99, 17.95, 2.09, 1.80, 7.99, repro,
2006-07-23,-5.54, -3.12, 11.61, 2.18, 1.80, 8.25, repro,
2006-07-24,-5.66, -4.46, 17.46, 2.00, 1.65, 7.54, repro,
2006-07-25,-5.77, -6.65, 12.95, 2.01, 1.66, 7.52, repro,
2006-07-26,-5.63, -5.29, 17.17, 2.00, 1.66, 7.50, repro,
2006-07-27,-5.17, -4.35, 11.66, 1.95, 1.59, 7.27, repro,
2006-07-28,-4.10, -3.20, 8.07, 1.95, 1.58, 7.25, repro,
2006-07-29,-5.60, -5.11, 10.72, 1.99, 1.65, 7.57, repro,
2006-07-30,-5.45, -3.05, 12.23, 2.01, 1.66, 7.57, repro,
2006-07-31,-6.52, -4.10, 15.43, 2.01, 1.66, 7.57, repro,
2006-08-01,-5.64, -3.96, 12.91, 2.01, 1.62, 7.50, repro,
2006-08-02,-6.30, -3.78, 11.74, 1.97, 1.64, 7.52, repro,
2006-08-03,-6.48, -4.30, 11.19, 2.03, 1.70, 7.81, repro,
2006-08-04,-6.60, -3.82, 15.71, 2.08, 1.68, 7.83, repro,
2006-08-05,-6.36, -3.96, 9.24, 2.05, 1.71, 7.90, repro,
2006-08-06,-6.40, -4.24, 7.44, 1.99, 1.66, 7.66, repro,
2006-08-07,-6.80, -4.03, 6.83, 1.98, 1.64, 7.61, repro,
2006-08-08,-6.02, -2.74, 6.46, 2.00, 1.65, 7.52, repro,
2006-08-09,-6.12, -3.30, 9.54, 2.03, 1.69, 7.76, repro,
2006-08-10,-6.54, -3.69, 9.12, 1.98, 1.61, 7.43, repro,
2006-08-11,-6.17, -4.58, 13.86, 1.97, 1.61, 7.41, repro,
2006-08-12,-6.27, -3.63, 6.77, 1.95, 1.59, 7.31, repro,
2006-08-13,-7.12, -4.28, 12.06, 2.00, 1.65, 7.54, repro,
2006-08-14,-6.38, -5.03, 13.09, 2.00, 1.65, 7.52, repro,
2006-08-15,-6.76, -3.60, 12.87, 2.09, 1.68, 7.72, repro,
2006-08-16,-5.47, -3.71, 7.96, 2.09, 1.69, 7.73, repro,
2006-08-17,-5.91, -4.14, 8.12, 2.07, 1.68, 7.67, repro,
2006-08-18,-7.32, -4.41, 8.79, 2.02, 1.69, 7.61, repro,
2006-08-19,-7.29, -4.98, 7.31, 1.95, 1.60, 7.32, repro,
2006-08-20,-6.79, -3.93, 13.38, 1.96, 1.60, 7.36, repro,
2006-08-21,-6.34, -3.11, 10.19, 1.97, 1.64, 7.44, repro,
2006-08-22,-6.41, -3.87, 11.52, 1.96, 1.63, 7.38, repro,
2006-08-23,-6.28, -2.88, 14.82, 1.96, 1.63, 7.38, repro,
2006-08-24,-6.07, -4.43, 14.73, 1.96, 1.62, 7.40, repro,
2006-08-25,-7.33, -3.25, 16.66, 2.01, 1.67, 7.70, repro,
2006-08-26,-6.30, -4.95, 18.03, 2.03, 1.70, 7.82, repro,
2006-08-27,-6.47, -4.11, 16.26, 2.03, 1.72, 7.83, repro,
2006-08-28,-6.98, -4.07, 7.37, 2.08, 1.78, 8.00, repro,
2006-08-29,-6.30, -5.52, 13.46, 2.09, 1.81, 8.05, repro,
2006-08-30,-7.63, -4.79, 16.83, 2.10, 1.74, 7.99, repro,
2006-08-31,-6.86, -4.03, 13.00, 2.03, 1.72, 7.79, repro,
2006-09-01,-6.48, -3.99, 9.99, 2.08, 1.75, 7.97, repro,
2006-09-02,-6.84, -4.17, 8.92, 2.04, 1.72, 7.83, repro,
2006-09-03,-5.93, -3.79, 6.92, 2.03, 1.72, 7.84, repro,
2006-09-04,-6.40, -4.17, 3.15, 2.09, 1.75, 8.00, repro,
2006-09-05,-6.03, -2.99, 2.40, 2.09, 1.75, 7.96, repro,
2006-09-06,-5.97, -2.80, 10.07, 2.07, 1.75, 7.91, repro,
2006-09-07,-7.62, -4.37, 14.31, 2.09, 1.78, 8.10, repro,
2006-09-08,-5.69, -3.73, 10.44, 2.07, 1.76, 8.02, repro,
2006-09-09,-6.85, -3.86, 13.42, 1.99, 1.67, 7.53, repro,
2006-09-10,-5.73, -2.75, 14.84, 2.00, 1.68, 7.53, repro,
2006-09-11,-5.18, -3.14, 14.80, 2.01, 1.68, 7.58, repro,
2006-09-12,-6.37, -4.55, 7.36, 2.02, 1.69, 7.67, repro,
2006-09-13,-7.19, -3.58, 11.83, 2.00, 1.68, 7.59, repro,
2006-09-14,-7.91, -3.68, 15.32, 2.09, 1.76, 7.81, repro,
2006-09-15,-6.38, -3.32, 14.87, 2.04, 1.66, 7.60, repro,
2006-09-16,-5.49, -3.80, 11.61, 1.97, 1.64, 7.43, repro,
2006-09-17,-7.45, -3.89, 14.02, 1.97, 1.63, 7.40, repro,
2006-09-18,-6.64, -3.84, 11.37, 1.97, 1.63, 7.45, repro,
2006-09-19,-6.62, -3.52, 13.35, 1.97, 1.63, 7.39, repro,
2006-09-20,-7.09, -3.36, 15.19, 1.98, 1.64, 7.47, repro,
2006-09-21,-5.39, -4.92, 15.35, 2.00, 1.67, 7.53, repro,
2006-09-22,-5.48, -4.92, 19.05, 2.09, 1.72, 7.82, repro,
2006-09-23,-5.62, -4.64, 9.97, 2.07, 1.69, 7.69, repro,
2006-09-24,-6.26, -4.56, 14.11, 2.14, 1.71, 7.98, repro,
2006-09-25,-5.97, -4.50, 13.33, 2.10, 1.70, 7.87, repro,
2006-09-26,-6.22, -4.65, 16.40, 2.06, 1.72, 7.62, repro,
2006-09-27,-5.83, -3.77, 9.14, 2.10, 1.75, 7.84, repro,
2006-09-28,-6.68, -4.32, 13.34, 2.11, 1.77, 7.83, repro,
2006-09-29,-6.36, -3.88, 13.08, 2.03, 1.66, 7.53, repro,
2006-09-30,-5.95, -4.03, 21.41, 2.02, 1.67, 7.67, repro,
2006-10-01,-6.78, -4.03, 19.87, 2.02, 1.69, 7.73, repro,
2006-10-02,-5.48, -3.58, 13.72, 2.06, 1.76, 7.74, repro,
2006-10-03,-5.63, -4.51, 5.51, 2.14, 1.78, 7.93, repro,
2006-10-04,-6.57, -4.34, 6.61, 2.04, 1.67, 7.62, repro,
2006-10-05,-4.96, -4.43, 19.60, 2.07, 1.72, 7.98, repro,
2006-10-06,-7.06, -4.10, 12.92, 2.06, 1.68, 7.86, repro,
2006-10-07,-6.43, -3.86, 8.28, 2.10, 1.80, 8.10, repro,
2006-10-08,-5.28, -4.38, 9.11, 2.08, 1.72, 7.93, repro,
2006-10-09,-6.60, -4.63, 6.46, 2.16, 1.82, 8.30, repro,
2006-10-10,-6.58, -4.06, 9.12, 2.01, 1.68, 7.68, repro,
2006-10-11,-6.25, -4.43, 11.66, 2.05, 1.72, 7.85, repro,
2006-10-12,-7.70, -3.90, 15.84, 2.02, 1.65, 7.56, repro,
2006-10-13,-6.11, -4.56, 19.82, 1.99, 1.64, 7.52, repro,
2006-10-14,-7.02, -3.64, 11.88, 2.01, 1.71, 7.82, repro,
2006-10-15,-6.81, -3.47, 17.86, 2.03, 1.70, 7.80, repro,
2006-10-16,-7.08, -2.61, 24.57, 2.01, 1.66, 7.59, repro,
2006-10-17,-6.25, -2.94, 18.42, 2.07, 1.73, 7.91, repro,
2006-10-18,-6.54, -4.32, 18.19, 2.07, 1.80, 8.16, repro,
2006-10-19,-7.23, -4.00, 14.92, 2.21, 1.76, 8.46, repro,
2006-10-20,-6.13, -3.28, 14.49, 2.40, 2.17, 10.29, repro,
2006-10-21,-6.99, -4.92, 13.93, 2.31, 1.98, 9.15, repro,
2006-10-22,-7.32, -4.17, 12.37, 2.09, 1.72, 8.12, repro,
2006-10-23,-6.68, -4.12, 11.97, 2.23, 1.92, 8.65, repro,
2006-10-24,-6.15, -4.22, 12.15, 2.14, 1.73, 8.18, repro,
2006-10-25,-6.41, -4.76, 10.21, 2.19, 1.79, 8.40, repro,
2006-10-26,-5.88, -3.67, 12.11, 2.03, 1.77, 7.90, repro,
2006-10-27,-6.22, -3.83, 7.01, 2.03, 1.78, 7.90, repro,
2006-10-28,-7.07, -3.11, 11.91, 2.17, 1.80, 8.44, repro,
2006-10-29,-7.25, -3.10, 16.01, 2.00, 1.71, 7.75, repro,
2006-10-30,-5.93, -3.14, 13.33, 1.96, 1.68, 7.60, repro,
2006-10-31,-6.72, -3.68, 15.83, 1.98, 1.71, 7.69, repro,
2006-11-01,-7.22, -2.87, 11.93, 2.12, 1.79, 8.34, repro,
2006-11-02,-5.02, -3.04, 17.99, 1.98, 1.67, 7.60, repro,
2006-11-03,-6.76, -3.91, 11.56, 1.99, 1.71, 7.70, repro,
2006-11-04,-6.36, -3.28, 10.72, 2.03, 1.71, 7.80, repro,
2006-11-05,-6.28, -4.27, 11.30, 2.10, 1.79, 8.16, repro,
2006-11-06,-5.97, -4.46, 7.63, 1.96, 1.67, 7.61, repro,
2006-11-07,-6.62, -4.91, 5.91, 2.09, 1.78, 8.13, repro,
2006-11-08,-4.70, -4.35, 13.33, 2.04, 1.72, 7.89, repro,
2006-11-09,-6.59, -3.18, 13.47, 2.09, 1.78, 8.18, repro,
2006-11-10,-5.82, -3.48, 10.57, 2.00, 1.66, 7.66, repro,
2006-11-11,-7.25, -2.50, 11.60, 2.02, 1.71, 7.81, repro,
2006-11-12,-7.32, -3.14, 9.46, 2.08, 1.78, 7.97, repro,
2006-11-13,-5.70, -3.26, 15.81, 2.05, 1.71, 7.75, repro,
2006-11-14,-5.56, -3.35, 10.71, 1.95, 1.63, 7.46, repro,
2006-11-15,-6.13, -3.47, 7.74, 1.92, 1.62, 7.34, repro,
2006-11-16,-6.46, -3.60, 14.85, 1.93, 1.63, 7.36, repro,
2006-11-17,-6.57, -2.76, 11.24, 1.92, 1.63, 7.32, repro,
2006-11-18,-5.67, -3.66, 7.56, 1.94, 1.63, 7.33, repro,
2006-11-19,-6.03, -3.99, 4.52, 1.94, 1.62, 7.35, repro,
2006-11-20,-6.32, -3.35, 8.14, 1.93, 1.63, 7.34, repro,
2006-11-21,-5.82, -3.27, 11.01, 1.93, 1.63, 7.37, repro,
2006-11-22,-7.00, -3.53, 5.16, 1.93, 1.64, 7.38, repro,
2006-11-23,-6.41, -3.25, 7.57, 1.94, 1.67, 7.47, repro,
2006-11-24,-6.38, -3.69, 9.32, 2.02, 1.70, 7.68, repro,
2006-11-25,-6.38, -4.14, 8.64, 1.97, 1.65, 7.45, repro,
2006-11-26,-6.62, -2.98, 2.70, 2.01, 1.68, 7.54, repro,
2006-11-27,-6.16, -2.42, 8.86, 1.97, 1.65, 7.48, repro,
2006-11-28,-7.64, -3.78, 10.53, 1.92, 1.64, 7.34, repro,
2006-11-29,-7.30, -3.20, 6.11, 1.93, 1.64, 7.37, repro,
2006-11-30,-5.85, -2.78, 5.27, 1.94, 1.64, 7.38, repro,
2006-12-01,-6.86, -3.31, 3.38, 1.93, 1.63, 7.34, repro,
2006-12-02,-7.50, -3.69, -0.14, 1.93, 1.63, 7.37, repro,
2006-12-03,-6.26, -3.55, 6.09, 1.94, 1.65, 7.41, repro,
2006-12-04,-5.45, -4.08, -0.42, 1.98, 1.65, 7.44, repro,
2006-12-05,-6.23, -3.44, 7.41, 1.96, 1.70, 7.47, repro,
2006-12-06,-4.90, -4.18, 8.25, 2.11, 1.84, 8.12, repro,
2006-12-07,-6.08, -3.72, 6.66, 1.96, 1.71, 7.54, repro,
2006-12-08,-5.99, -4.21, 11.68, 1.96, 1.71, 7.54, repro,
2006-12-09,-6.56, -1.82, 11.59, 2.05, 1.82, 7.78, repro,
2006-12-10,-5.96, -1.88, 5.97, 2.00, 1.74, 7.65, repro,
2006-12-11,-6.02, -3.75, 4.74, 1.95, 1.68, 7.54, repro,
2006-12-12,-5.86, -3.76, 2.49, 2.09, 1.78, 8.01, repro,
2006-12-13,-5.16, -3.45, 1.03, 1.94, 1.72, 7.50, repro,
2006-12-14,-6.16, -4.27, 1.65, 1.92, 1.65, 7.31, repro,
2006-12-15,-5.33, -3.07, 5.72, 2.01, 1.76, 7.79, repro,
2006-12-16,-5.94, -4.36, 9.54, 2.01, 1.75, 7.64, repro,
2006-12-17,-5.75, -3.25, 6.62, 2.08, 1.92, 8.24, repro,
2006-12-18,-6.26, -3.38, 4.57, 2.24, 1.95, 8.79, repro,
2006-12-19,-5.74, -3.30, 8.80, 2.05, 1.89, 8.11, repro,
2006-12-20,-6.23, -3.41, 6.77, 2.11, 1.94, 8.28, repro,
2006-12-21,-5.60, -3.34, 2.35, 1.94, 1.79, 7.59, repro,
2006-12-22,-6.18, -3.15, 13.77, 2.12, 1.96, 8.53, repro,
2006-12-23,-4.97, -3.12, 3.41, 2.05, 1.85, 8.10, repro,
2006-12-24,-5.93, -3.04, 2.60, 1.98, 1.68, 7.50, repro,
2006-12-25,-5.77, -3.04, 0.06, 1.98, 1.79, 7.65, repro,
2006-12-26,-6.18, -4.27, 7.85, 2.01, 1.77, 7.86, repro,
2006-12-27,-5.41, -1.69, 11.52, 2.02, 1.80, 7.99, repro,
2006-12-28,-7.18, -3.78, 10.33, 2.31, 2.20, 9.52, repro,
2006-12-29,-6.62, -4.29, 5.88, 2.19, 1.99, 8.67, repro,
2006-12-30,-5.39, -2.97, 3.71, 2.11, 1.84, 8.17, repro,
2006-12-31,-5.26, -2.09, 1.82, 2.19, 1.99, 8.65, repro,
2007-01-01,-7.70, -3.20, 4.42, 2.28, 2.17, 9.18, repro,
2007-01-02,-6.46, -2.75, 6.04, 2.12, 1.95, 8.36, repro,
2007-01-03,-4.44, -3.49, 8.95, 2.03, 1.88, 8.04, repro,
2007-01-04,-6.31, -2.37, 6.97, 1.95, 1.74, 7.60, repro,
2007-01-05,-4.31, -2.89, 11.95, 2.02, 1.85, 7.97, repro,
2007-01-06,-6.04, -3.12, 7.51, 1.98, 1.81, 7.75, repro,
2007-01-07,-6.43, -3.04, 1.77, 1.96, 1.69, 7.49, repro,
2007-01-08,-6.13, -3.97, 3.66, 1.98, 1.71, 7.56, repro,
2007-01-09,-5.54, -3.02, -0.28, 1.96, 1.68, 7.41, repro,
2007-01-10,-5.85, -3.43, 6.34, 2.00, 1.72, 7.56, repro,
2007-01-11,-4.93, -4.08, 8.17, 2.07, 1.76, 7.85, repro,
2007-01-12,-6.74, -3.03, 2.43, 1.93, 1.63, 7.34, repro,
2007-01-13,-6.83, -3.50, -3.36, 1.89, 1.61, 7.14, repro,
2007-01-14,-5.57, -3.63, -0.79, 1.89, 1.60, 7.09, repro,
2007-01-15,-5.04, -2.76, -4.37, 1.89, 1.61, 7.17, repro,
2007-01-16,-4.76, -2.92, -1.12, 1.93, 1.63, 7.30, repro,
2007-01-17,-5.98, -2.72, -2.18, 1.94, 1.66, 7.38, repro,
2007-01-18,-5.65, -3.89, -1.95, 1.96, 1.70, 7.47, repro,
2007-01-19,-5.71, -3.24, -1.19, 1.95, 1.62, 7.43, repro,
2007-01-20,-6.76, -3.61, 4.29, 1.95, 1.62, 7.41, repro,
2007-01-21,-7.05, -3.80, 4.63, 1.92, 1.66, 7.37, repro,
2007-01-22,-5.85, -2.80, 0.84, 1.90, 1.62, 7.21, repro,
2007-01-23,-5.88, -2.97, 0.21, 1.89, 1.61, 7.11, repro,
2007-01-24,-6.49, -2.89, -2.55, 1.90, 1.61, 7.13, repro,
2007-01-25,-5.15, -3.22, -4.04, 1.94, 1.65, 7.20, repro,
2007-01-26,-6.28, -3.42, 3.71, 1.88, 1.60, 7.06, repro,
2007-01-27,-5.86, -3.64, -0.30, 1.88, 1.61, 7.05, repro,
2007-01-28,-6.66, -2.55, 4.00, 1.89, 1.60, 7.06, repro,
2007-01-29,-6.03, -2.95, 1.16, 1.90, 1.61, 7.11, repro,
2007-01-30,-5.66, -2.84, 5.13, 1.89, 1.60, 7.08, repro,
2007-01-31,-6.06, -2.69, 6.93, 1.89, 1.60, 7.11, repro,
2007-02-01,-7.06, -1.95, 5.73, 1.91, 1.64, 7.22, repro,
2007-02-02,-6.78, -2.54, 3.59, 1.92, 1.62, 7.22, repro,
2007-02-03,-6.14, -2.73, -1.44, 1.92, 1.62, 7.23, repro,
2007-02-04,-5.76, -2.51, 4.94, 1.89, 1.61, 7.12, repro,
2007-02-05,-6.04, -2.07, -0.29, 1.89, 1.60, 7.11, repro,
2007-02-06,-6.91, -2.63, 3.20, 1.93, 1.61, 7.16, repro,
2007-02-07,-6.05, -3.58, 7.23, 1.90, 1.61, 7.10, repro,
2007-02-08,-5.08, -1.73, 1.01, 1.98, 1.68, 7.49, repro,
2007-02-09,-6.04, -0.76, 0.75, 1.91, 1.67, 7.29, repro,
2007-02-10,-4.33, -0.48, 0.13, 1.90, 1.60, 7.09, repro,
2007-02-11,-5.06, -1.10, 9.94, 1.92, 1.62, 7.17, repro,
2007-02-12,-5.43, -2.39, -4.33, 1.89, 1.60, 7.10, repro,
2007-02-13,-6.43, -1.80, -0.61, 1.88, 1.60, 7.07, repro,
2007-02-14,-7.48, -1.79, -2.76, 1.88, 1.61, 7.01, repro,
2007-02-15,-4.57, -0.86, 4.02, 1.90, 1.62, 7.15, repro,
2007-02-16,-6.21, -2.09, 5.09, 1.91, 1.60, 7.12, repro,
2007-02-17,-6.88, -1.27, 4.88, 1.94, 1.66, 7.27, repro,
2007-02-18,-6.31, -2.26, 8.98, 1.91, 1.62, 7.20, repro,
2007-02-19,-7.05, -2.77, 8.33, 1.88, 1.61, 7.09, repro,
2007-02-20,-5.60, -3.47, 7.00, 1.90, 1.64, 7.24, repro,
2007-02-21,-5.63, -1.78, 7.91, 1.90, 1.59, 7.11, repro,
2007-02-22,-6.34, -1.65, 9.40, 1.91, 1.61, 7.18, repro,
2007-02-23,-6.64, -0.36, 4.52, 2.09, 1.72, 7.65, repro,
2007-02-24,-5.69, -3.24, 5.70, 1.90, 1.61, 7.16, repro,
2007-02-25,-5.43, -1.15, 3.16, 1.89, 1.60, 7.07, repro,
2007-02-26,-5.71, -0.82, 2.09, 1.89, 1.59, 7.05, repro,